Location: Rumah Apan
(2.7833°N, 113.9500°E)
Time: 17:30:44
(UTC+00:00)

ARIANE 44L R/B - Pass Details

Date: 25 July 2021
Orbit: 316 x 34086 km, 7.6° (Epoch: 17 September)

Event Time Altitude Azimuth Distance (km) Brightness Sun altitude
Rises 10:33:19 0° 267° (W) 11,185 10.5 0.3°
Reaches altitude 10° 10:46:55 10° 260° (W) 5,966 8.7 -2.9°
Maximum altitude 10:57:29 30° 202° (SSW) 1,560 4.7 -5.3°
Drops below altitude 10° 11:00:38 10° 136° (SE) 1,733 4.3 -6.1°
Enters shadow 11:01:09 - 130° (SE) 1,918 4.5 -6.2°
